Location: Pardubice
(50.0330°N, 15.7830°E)
Time: 02:18:55
(UTC+02:00)

Transit 2A - Visible Passes

Search period start: 13 June 2025 00:00
Search period end: 23 June 2025 00:00
Orbit: 599 x 947 km, 66.7° (Epoch: 12 June)

Date Brightness Start Highest point End Pass type
(mag) Time Alt. Az. Time Alt. Az. Time Alt. Az.
13 Jun 7.0 01:27:27 20° SE 01:28:52 23° ESE 01:32:20 10° ENE visible
13 Jun 6.1 03:07:47 13° WSW 03:11:35 51° NW 03:15:50 10° NNE visible
14 Jun 7.4 00:52:10 15° ESE 00:53:03 16° ESE 00:55:39 10° ENE visible
14 Jun 5.6 02:32:30 20° SW 02:35:30 74° NW 02:39:51 10° NE visible
15 Jun 5.5 01:57:11 27° SSW 01:59:28 74° ESE 02:03:49 10° NE visible
15 Jun 7.5 03:39:31 10° W 03:42:56 22° NW 03:46:23 10° NNE visible
16 Jun 5.9 01:21:49 31° S 01:23:30 48° ESE 01:27:42 10° NE visible
16 Jun 7.1 03:02:52 10° W 03:06:41 29° NW 03:10:30 10° NNE visible
17 Jun 6.5 00:46:24 27° SSE 00:47:36 32° ESE 00:51:27 10° NE visible
17 Jun 6.6 02:26:44 12° WSW 02:30:29 39° NW 02:34:36 10° NNE visible
18 Jun 7.0 00:10:57 20° SE 00:11:44 21° ESE 00:15:01 10° ENE visible
18 Jun 6.0 01:51:17 18° WSW 01:54:22 55° NW 01:58:39 10° NNE visible
18 Jun 8.1 03:35:48 10° WNW 03:38:20 15° NNW 03:40:53 10° N visible
18 Jun 7.4 23:35:27 14° ESE 23:35:55 14° ESE 23:38:10 10° ENE visible
19 Jun 5.5 01:15:46 25° SW 01:18:17 82° NW 01:22:39 10° NE visible
19 Jun 7.9 02:58:54 10° WNW 03:01:59 18° NNW 03:05:05 10° NNE visible
20 Jun 5.5 00:40:11 29° SSW 00:42:16 67° ESE 00:46:36 10° NE visible
20 Jun 7.6 02:22:09 10° W 02:25:40 23° NW 02:29:14 10° NNE visible
21 Jun 5.9 00:04:33 28° S 00:06:19 43° ESE 00:10:27 10° NE visible
21 Jun 7.1 01:45:33 10° WSW 01:49:26 31° NW 01:53:21 10° NNE visible
21 Jun 8.4 03:32:31 10° NW 03:33:53 11° NNW 03:35:16 10° N visible
21 Jun 6.5 23:28:49 22° SSE 23:30:25 29° ESE 23:34:09 10° NE visible
22 Jun 6.6 01:09:07 10° WSW 01:13:15 42° NW 01:17:25 10° NNE visible
22 Jun 8.3 02:55:21 10° NW 02:57:27 13° NNW 02:59:33 10° N visible
22 Jun 7.0 22:52:59 16° SE 22:54:34 19° ESE 22:57:39 10° ENE visible
